Regional Weather Roundup
Issued by NWS

Home | Current Version | Previous Version | Graphics & Text | Print | Product List | Glossary On
Versions: 1 2 3 4 5 6 7 8 9 10 11 12 13 14 15 16 17 18 19 20 21 22 23 24 25 26 27 28 29 30 31 32 33 34 35 36 37 38 39 40 41 42 43 44 45 46 47 48 49 50
000
ASUS43 KDMX 262008
RWRIA

WEATHER ROUNDUP FOR IOWA
NATIONAL WEATHER SERVICE DES MOINES IA
300 PM CDT MON SEP 26 2016

NOTE: "FAIR" INDICATES FEW OR NO CLOUDS BELOW 12,000 FEET WITH NO
SIGNIFICANT WEATHER AND/OR OBSTRUCTIONS TO VISIBILITY.

* - THESE STATIONS ARE NOT NWS STATIONS...THUS NOT UNDER NWS
QUALITY CONTROL.  THEY ALSO DO NOT REPORT WEATHER SUCH
AS PRECIPITATION OR FOG.

IAZ001>003-012>014-020>022-031>034-043>046-262100-
   NORTHWEST IOWA

CITY           SKY/WX    TMP DP  RH WIND       PRES   REMARKS
CARROLL *      SUNNY     72  36  26 NW25G33   30.09F
CHEROKEE *     SUNNY     70  38  32 W16G28    30.09F
DENISON *      MOSUNNY   72  41  33 NW17G29   30.09F
LE MARS *      SUNNY     72  39  30 NW21G29   30.11F
ORANGE CITY *  SUNNY     70  39  32 W25G32    30.09F
SHELDON *      SUNNY     70  36  28 NW22G29   30.06F
SIOUX CITY     MOSUNNY   73  44  35 NW21      30.10F
SPENCER        SUNNY     70  36  28 W26G39    30.06F
STORM LAKE *   SUNNY     70  36  28 W18G33    30.08F
$$

IAZ055>058-069>071-079>083-090>094-262100-
   SOUTHWEST IOWA

CITY           SKY/WX    TMP DP  RH WIND       PRES   REMARKS
ATLANTIC *     SUNNY     72  39  30 NW22G30   30.11F
AUDUBON *      MOSUNNY   72  39  30 NW13G23   30.12F
CLARINDA *       N/A     75  41  29 MISG      30.16F
COUNCIL BLFS * SUNNY     73  39  29 NW15G24   30.13F
CRESTON *      SUNNY     70  41  35 W16G25    30.14F
HARLAN  *      SUNNY     73  41  31 NW24G32   30.15F
LAMONI         SUNNY     72  39  30 NW13G25   30.14F
RED OAK *      SUNNY     73  41  31 W13G26    30.14F
SHENANDOAH *   SUNNY     75  39  27 W15G22    30.15F
$$

IAZ047>049-059>061-072>074-084-262100-
   CENTRAL IOWA

CITY           SKY/WX    TMP DP  RH WIND       PRES   REMARKS
AMES           SUNNY     71  39  31 NW23G35   30.06F
ANKENY *         N/A    N/A N/A N/A MISG        N/A
BOONE *        SUNNY     72  39  30 NW22G29   30.06F
CHARITON *       N/A     72  37  28 NW16G30   30.10F
DES MOINES     MOSUNNY   74  38  27 NW22G35   30.07F
GRINNELL*      SUNNY     71  35  27 W24G30    30.06F
KNOXVILLE *    SUNNY     72  36  26 NW20G30   30.07F
MARSHALLTOWN   SUNNY     70  38  31 W22G30    30.03F
NEWTON *       SUNNY     72  36  26 NW12G30   30.06F
PELLA *        SUNNY     71  34  25 W17G28    30.09F
PERRY *          N/A     73  34  24 W15G28    30.08F
$$

IAZ004>006-015-016-023>025-035-036-262100-
   NORTH CENTRAL IOWA

CITY           SKY/WX    TMP DP  RH WIND       PRES   REMARKS
ALGONA *       SUNNY     70  32  24 NW20G30   30.04F
CLARION *      SUNNY     68  36  30 NW22G31   30.03F
ESTHERVILLE    SUNNY     68  31  25 NW25G32   30.03F
FORT DODGE *   SUNNY     70  41  35 W14G29    30.06F
MASON CITY     SUNNY     67  33  28 W26G33    30.02F
FOREST CITY *    N/A     68  32  26 NW18G26   30.01S
WEBSTER CITY * SUNNY     72  36  26 W24G38    30.03F
IOWA FALLS *     N/A     70  36  28 W18G33    30.04F
$$

IAZ007>011-017>019-026>030-037>042-050>054-066-262100-
   NORTHEAST IOWA

CITY           SKY/WX    TMP DP  RH WIND       PRES   REMARKS
CEDAR RAPIDS   SUNNY     69  37  30 W23G33    30.02F
CHARLES CITY * SUNNY     68  30  24 W18G31    29.99F
CLINTON *      SUNNY     70  34  26 W18G31    29.99F
DECORAH *      SUNNY     66  34  30 W15G32    29.93F
DUBUQUE        SUNNY     67  34  29 W21G32    29.98F
MONTICELLO *   SUNNY     70  32  24 W20G32    29.98F
OELWEIN *      SUNNY     68  32  26 W18G35    29.99F
WATERLOO       SUNNY     68  31  25 W22G32    29.99F
$$

IAZ064-065-067-068-078-262100-
   EAST CENTRAL IOWA

CITY           SKY/WX    TMP DP  RH WIND       PRES   REMARKS
DAVENPORT      SUNNY     71  32  23 W17G28    30.01F
IOWA CITY      SUNNY     71  34  25 NW22G33   30.04F
MT. PLEASANT * SUNNY     74  33  22 NW15G25   30.07S
MUSCATINE *    SUNNY     73  32  21 W17G26    30.04F
QUAD CITIES    SUNNY     72  34  24 W17G31    30.01F
$$

IAZ062-063-075>077-085>089-095>099-262100-
   SOUTHEAST IOWA

CITY           SKY/WX    TMP DP  RH WIND       PRES   REMARKS
BURLINGTON     SUNNY     72  33  24 W10G25    30.06F
FAIRFIELD *    SUNNY     73  34  23 W20G28    30.06F
FORT MADISON *   N/A     73  34  23 W13G22    30.08F
KEOKUK *       SUNNY     73  32  21 NW16G23   30.08F
OSKALOOSA *      N/A     73  34  24 W23G30    30.07F
OTTUMWA        LGT RAIN  72  37  28 W18       30.08F
WASHINGTON *     N/A    N/A N/A N/A MISG        N/A
$$

ABBREVIATIONS USED IN REMARKS
   TC - TEMPERATURES IN CELSIUS
  WCI - WIND CHILL INDEX
   HX - HEAT INDEX
  VSB - VISIBILITY
$$





USA.gov is the U.S. government's official web portal to all federal, state and local government web resources and services.